RH
10 10 10 10 11 11 12 14 15 16 17 18 19 18 18 17 17 17 18 18 18 19 19 19 20 20 21 20 17 14 16 19 15 15 21 26 26 23 20 18 16 14 13 14 15 14 12 10 10 10 9 11 13 15 17 16 18 22 20 14 12 13 14 16 16 18 20 22 29 28 28 33 32 31 32 32 33 35 34 33 29 23 22 21 23 29 30 32
9 10 11 12 13 14 15 16 16 17 17 18 19 18 17 17 17 17 18 18 19 19 19 19 19 19 20 19 18 13 14 17 12 17 27 24 21 21 19 17 15 13 13 16 15 11 10 10 9 10 9 10 13 15 18 17 18 22 18 13 16 17 18 19 15 18 21 21 27 26 26 29 28 27 27 29 30 31 34 33 31 28 25 22 23 29 32 32
11 11 13 14 15 15 16 16 17 17 18 18 18 17 17 17 18 19 19 19 20 19 18 19 20 20 19 19 18 13 17 18 9 16 24 20 20 20 18 16 15 13 14 17 14 11 12 11 10 10 9 11 13 15 17 19 19 21 20 16 19 21 19 21 19 22 24 22 24 25 26 27 26 23 25 31 29 29 33 31 31 30 26 23 21 25 31 31
13 14 15 16 16 16 16 17 17 18 18 18 17 17 16 17 20 21 21 20 20 19 18 20 22 21 18 17 16 16 21 18 11 17 20 17 20 20 18 17 15 13 15 16 14 13 13 12 11 11 12 15 15 14 15 20 21 20 23 20 18 18 17 21 22 24 27 24 22 24 29 28 25 24 26 30 30 29 29 27 28 28 25 23 21 23 29 31
15 16 16 16 16 16 17 17 18 18 18 17 16 17 18 19 22 22 22 21 20 21 20 20 21 19 18 18 17 18 22 19 17 20 19 16 18 20 19 18 15 12 14 15 13 13 13 10 11 13 15 16 17 17 16 18 21 22 24 22 18 18 19 23 24 27 30 25 22 26 29 26 25 28 28 29 31 27 24 26 26 24 22 20 20 21 26 32
16 16 16 16 16 16 17 18 18 18 17 16 16 18 19 20 21 22 21 21 21 21 22 21 20 19 17 17 16 18 21 21 21 21 19 16 17 19 19 18 16 13 14 15 12 10 12 9 11 15 16 17 19 19 18 17 20 22 22 22 22 22 23 24 26 31 30 25 23 26 26 25 30 31 27 28 29 25 22 27 27 26 24 21 25 24 25 32
16 15 16 15 16 16 17 18 18 17 16 16 17 18 19 20 21 22 21 21 21 21 21 21 20 21 19 21 23 19 17 20 21 23 21 17 17 19 19 17 15 15 17 15 11 9 10 10 11 16 19 21 22 21 22 20 22 25 24 24 24 25 27 28 31 33 30 25 23 25 26 27 31 29 25 27 27 25 24 25 27 31 31 30 34 32 28 32
14 15 14 15 16 17 18 17 17 16 16 17 18 19 19 21 22 22 21 20 20 20 20 19 19 21 19 26 29 17 16 21 21 24 22 17 18 18 18 18 15 15 17 14 12 10 10 12 13 17 22 26 26 26 27 24 25 30 29 26 25 27 28 29 32 32 29 27 25 26 27 24 23 25 26 27 26 24 24 23 24 28 33 34 35 32 30 31
14 15 15 16 17 17 17 16 16 15 16 18 18 19 19 21 22 22 22 19 19 18 18 18 19 20 18 25 25 16 20 23 23 25 21 17 18 18 19 19 17 15 15 15 14 11 11 14 15 16 21 27 27 29 32 30 31 34 33 27 25 28 29 30 30 29 28 26 26 27 26 23 20 24 27 24 22 20 19 20 19 21 27 32 32 30 29 29
15 16 17 17 16 16 17 16 16 16 17 18 18 18 19 20 20 20 21 19 18 18 18 18 17 18 20 25 22 18 23 24 23 25 22 20 18 19 20 18 17 15 14 14 14 12 11 14 15 15 20 26 29 32 34 35 35 35 33 29 28 28 28 30 28 28 28 26 27 28 26 23 21 29 29 19 17 18 18 18 18 18 21 25 28 28 27 28
16 16 16 16 16 17 18 18 17 17 17 18 18 18 18 18 19 21 21 20 19 18 18 19 19 20 20 20 18 19 23 23 24 24 24 23 20 21 21 19 19 16 14 15 17 16 13 15 15 20 25 25 29 34 37 39 35 32 31 31 31 27 26 28 27 27 27 27 27 27 28 25 24 32 31 20 17 18 19 19 18 19 19 20 22 22 24 26
15 15 16 16 16 17 18 17 16 17 17 17 17 17 18 18 19 21 21 21 21 19 19 19 20 23 22 18 19 22 23 23 24 24 24 23 21 23 22 21 21 17 16 15 19 20 20 22 21 26 29 25 30 33 35 39 32 30 31 31 31 27 26 25 25 27 26 27 27 28 31 26 25 30 26 21 18 17 20 21 19 19 19 19 20 19 20 21
15 15 15 14 15 16 17 16 16 17 16 17 17 17 17 19 20 21 20 20 19 19 19 19 20 24 26 23 22 22 22 23 23 23 24 22 20 21 21 21 20 19 19 19 24 24 24 26 25 29 31 28 35 34 31 34 31 31 29 28 29 26 26 24 24 27 26 27 27 29 31 22 20 24 21 18 17 18 21 21 20 18 18 18 19 19 18 19
15 15 14 13 14 16 17 16 16 16 16 17 16 17 19 20 20 20 20 19 18 18 19 21 24 25 26 25 22 22 23 23 22 22 23 22 19 18 20 21 20 21 21 22 27 26 26 27 24 30 32 28 33 35 31 28 28 31 29 27 25 22 25 26 24 26 26 27 26 31 35 23 16 17 17 16 17 20 21 20 18 17 17 17 18 19 19 19
14 15 13 12 14 16 17 16 16 16 16 16 16 18 20 21 20 20 20 19 18 19 20 25 26 24 24 24 21 22 23 21 21 23 23 23 20 17 19 19 20 21 21 21 23 24 26 26 23 26 31 32 36 34 28 24 24 27 28 26 22 19 24 27 25 23 24 26 28 33 36 26 18 16 17 18 18 21 20 18 17 16 17 16 17 18 18 18
14 15 12 12 14 16 17 16 16 16 15 16 17 18 18 18 18 18 19 19 19 19 20 24 24 23 25 24 21 21 21 20 21 23 23 24 22 20 20 19 19 19 19 20 21 23 21 23 30 30 29 32 34 29 22 23 22 23 25 23 21 21 21 25 28 28 27 30 32 34 34 27 20 17 18 21 21 21 20 18 17 16 17 16 16 17 17 18
15 14 12 14 15 16 16 15 15 15 16 17 17 18 18 18 18 17 18 18 17 18 18 21 23 23 23 22 21 20 20 21 21 23 23 23 22 21 19 17 17 17 17 18 18 21 18 23 35 33 25 24 26 25 23 24 22 22 23 19 21 24 21 23 32 35 35 36 34 33 37 33 24 19 18 20 20 22 21 18 17 16 16 16 16 17 17 18
15 13 13 16 17 17 17 16 16 16 17 18 18 18 18 18 17 17 20 19 17 19 19 21 25 26 26 21 20 20 20 21 22 22 22 23 23 22 20 18 17 16 17 17 17 19 19 23 29 26 21 21 25 27 27 30 32 32 28 23 22 24 22 21 30 40 39 40 40 34 35 32 24 22 20 18 17 19 20 18 17 16 15 16 16 17 17 18
13 11 14 18 18 18 17 17 18 18 18 18 18 17 17 19 19 19 23 23 25 30 28 27 30 30 26 21 19 20 20 22 22 20 22 24 23 21 20 18 18 17 18 21 19 21 26 25 23 24 25 29 34 37 37 39 42 41 35 32 28 25 24 20 30 47 43 41 43 38 35 30 24 22 19 17 16 15 17 18 19 18 17 17 17 17 17 17
11 9 14 17 16 17 18 18 18 17 17 16 16 19 20 21 21 20 24 27 30 37 35 31 30 26 22 20 19 20 21 21 20 19 21 23 24 22 18 17 21 19 24 32 28 28 35 29 24 31 35 36 39 41 43 42 42 42 37 33 29 26 26 19 31 50 47 40 35 29 30 28 25 24 20 18 17 15 16 18 21 20 18 18 16 16 16 16
9 8 13 16 15 17 18 18 18 16 15 16 19 24 25 25 26 24 26 29 29 32 32 29 26 21 20 21 20 22 22 18 16 17 20 23 24 21 18 21 23 20 27 39 37 35 35 29 31 38 37 39 41 42 46 47 46 44 37 31 26 27 27 22 35 48 43 41 33 24 27 26 24 23 20 19 18 17 15 17 21 19 17 16 16 16 15 14
7 8 13 16 17 17 17 18 18 14 17 24 26 26 26 27 29 26 26 26 25 29 30 27 23 19 20 21 22 24 22 19 18 15 19 24 20 21 26 23 20 23 29 33 33 29 26 32 41 40 35 42 47 47 49 50 50 43 33 29 26 27 28 27 42 47 41 42 34 28 34 30 24 22 19 19 17 17 15 15 18 17 15 15 14 14 14 14
6 9 13 17 17 17 17 18 17 15 18 26 28 25 23 21 19 20 24 23 22 27 27 25 24 21 19 19 21 23 20 24 25 17 21 25 21 26 33 25 23 28 28 30 29 20 23 39 46 42 41 44 45 46 49 47 44 38 30 26 24 27 30 30 40 44 40 42 37 38 46 37 26 22 17 16 17 17 17 17 20 21 19 17 16 16 16 15
6 8 13 17 16 16 18 17 17 19 19 20 22 21 18 16 15 18 24 23 22 26 25 25 27 22 20 20 22 24 21 24 26 18 21 26 25 30 33 32 33 27 26 37 35 26 36 45 44 47 45 42 42 43 45 40 32 29 30 29 26 28 33 32 34 38 36 40 46 46 42 31 23 19 13 15 21 21 21 22 22 24 25 24 25 24 22 21
6 6 11 16 14 15 17 16 19 21 19 19 19 16 15 17 19 19 23 23 20 23 27 29 27 20 20 20 22 28 28 26 22 20 25 27 30 36 37 39 37 27 30 41 34 29 42 46 45 49 42 40 44 40 39 39 28 24 32 38 34 31 36 36 36 39 32 31 45 44 28 19 15 13 11 15 20 18 20 24 21 18 21 26 29 25 21 21
7 6 9 13 14 14 14 19 23 18 20 26 20 15 17 19 19 18 23 22 15 21 28 26 23 21 22 21 22 31 34 29 21 21 27 31 37 44 40 37 38 37 40 42 34 34 44 47 48 47 41 42 46 39 37 38 29 26 35 42 40 36 40 41 41 42 30 23 36 40 29 22 18 13 14 18 18 15 15 18 17 14 15 20 23 20 18 18
9 8 6 9 12 12 16 23 21 16 24 31 21 15 17 20 19 20 25 20 15 24 25 20 21 22 24 23 24 29 29 27 26 25 26 30 37 41 36 33 36 41 47 41 32 37 46 47 46 45 43 41 39 37 37 37 31 32 42 46 41 40 42 43 43 41 34 28 33 38 34 30 26 19 19 22 17 12 12 12 12 13 13 15 16 16 17 18
10 9 7 8 9 12 18 17 17 24 30 27 20 17 18 20 20 23 25 19 17 22 21 21 22 20 23 24 23 26 27 28 31 28 26 29 33 35 33 35 37 42 51 40 23 34 48 45 43 44 41 37 35 36 39 39 35 38 47 47 42 44 45 46 46 39 35 34 31 35 38 31 24 17 18 22 15 11 14 12 11 13 14 16 16 16 17 17
12 10 8 8 7 12 15 11 19 33 28 20 20 20 19 19 19 23 21 16 18 19 20 25 23 22 29 29 26 29 30 30 29 27 28 29 29 33 37 40 42 42 48 42 26 32 46 45 46 44 36 36 37 39 43 42 40 47 52 49 47 50 48 47 44 35 36 38 31 33 36 27 19 12 13 18 15 15 17 13 12 13 14 17 18 18 19 19
12 12 10 9 12 13 13 14 21 26 24 21 23 21 20 20 22 21 15 16 23 25 26 27 24 28 34 31 28 29 30 30 30 30 32 30 26 30 39 43 42 36 37 40 35 38 48 52 54 50 42 41 39 41 49 49 46 52 51 47 45 44 44 42 36 32 35 34 31 34 34 28 23 14 8 14 20 21 21 17 15 15 16 17 16 16 17 17
10 12 10 11 17 15 16 22 21 19 23 23 22 22 22 23 22 16 14 22 27 26 29 30 31 34 33 31 28 27 31 32 32 31 27 26 25 23 29 32 31 27 22 25 29 39 52 49 46 52 51 46 41 41 52 57 53 51 44 38 35 30 31 32 29 32 32 28 31 35 33 31 28 18 10 15 24 25 25 24 21 19 19 18 17 16 16 17
10 12 11 14 17 12 18 25 22 22 24 23 23 22 21 22 19 15 17 24 27 27 31 34 34 34 34 34 30 29 34 30 30 35 31 27 27 29 31 27 26 23 13 14 19 26 40 42 41 51 51 45 42 36 42 53 51 44 35 30 30 25 22 24 24 25 23 25 32 32 30 30 25 18 16 16 19 20 23 26 25 24 22 21 21 21 22 23
14 13 13 15 14 12 19 23 23 25 22 22 26 21 20 18 15 20 20 18 26 33 36 37 34 33 33 29 25 31 36 30 27 34 39 34 27 34 41 37 35 28 13 15 17 12 26 41 43 46 47 46 41 28 26 34 34 31 28 28 31 27 27 31 27 22 22 25 30 29 30 29 21 17 18 15 14 16 19 23 26 28 27 25 25 28 31 28
18 16 15 18 18 19 24 24 26 25 19 23 26 21 21 16 15 26 23 17 28 34 36 38 34 33 32 24 24 31 29 27 31 29 30 28 20 24 32 34 39 33 19 18 18 15 21 28 31 35 40 45 41 33 33 34 30 30 31 31 32 28 31 36 30 28 31 27 26 32 33 28 19 16 15 14 15 17 20 23 26 26 27 30 30 29 28 22
19 17 17 21 24 26 28 28 25 22 20 25 25 20 19 16 15 23 24 27 31 29 32 38 34 27 22 21 29 35 27 23 30 26 20 20 19 21 24 28 35 34 27 21 18 21 19 17 31 42 42 40 38 43 47 38 30 30 29 31 34 32 30 32 29 31 38 37 33 34 31 21 15 13 13 14 15 16 18 21 21 18 18 24 26 22 19 17
16 18 18 21 25 25 25 26 24 22 24 25 22 20 22 22 21 23 34 41 35 32 33 32 29 20 13 17 22 29 34 29 24 20 17 21 26 27 28 33 39 38 34 25 18 22 19 17 33 45 44 39 38 45 50 40 32 30 29 31 36 36 32 34 35 32 36 41 34 27 24 21 19 16 12 12 13 12 13 14 14 13 12 15 17 16 16 17
14 18 21 21 23 23 21 20 20 21 23 24 24 23 25 29 31 34 42 43 38 41 33 18 22 22 15 16 16 21 30 28 22 18 15 21 28 30 32 37 43 41 35 29 21 22 25 23 25 31 37 43 47 50 50 49 43 32 31 36 35 36 35 34 38 37 35 36 27 22 29 30 26 22 14 12 14 12 13 13 12 13 13 14 14 15 15 15
14 21 25 20 18 21 19 15 17 21 22 26 29 27 27 33 39 44 47 46 45 44 27 13 22 25 17 15 15 23 31 25 20 17 14 18 25 31 33 34 41 41 38 39 31 24 28 28 25 28 32 40 48 47 43 49 51 40 39 40 34 34 34 29 35 41 42 40 32 28 34 32 24 23 22 18 15 12 14 14 13 13 13 14 15 15 16 16
18 24 26 19 16 18 15 14 20 23 22 24 27 28 32 38 45 48 49 52 50 39 23 19 25 24 19 19 18 23 32 27 19 17 17 20 25 34 35 31 37 41 40 44 37 26 27 26 25 32 34 34 35 31 27 35 45 45 42 37 33 34 35 31 33 38 40 41 38 36 36 29 20 21 23 19 13 13 15 15 14 15 15 15 16 16 17 19
25 24 22 16 15 17 17 20 26 27 26 27 28 30 36 41 45 50 56 58 50 36 24 21 24 22 21 23 21 22 27 24 21 19 18 22 26 32 40 39 37 41 44 47 42 30 27 25 23 27 32 29 24 24 22 22 28 33 32 32 33 32 32 33 33 36 39 38 38 41 38 28 18 16 16 14 13 14 15 15 15 15 15 15 17 18 20 21
25 23 23 18 14 17 22 27 29 29 27 27 28 35 46 49 46 49 62 67 55 40 33 28 26 25 25 23 22 25 25 21 23 21 17 23 20 22 52 69 57 49 45 40 39 33 27 27 27 26 27 22 20 28 33 28 26 26 25 27 30 29 32 37 38 37 40 41 41 43 42 31 20 15 14 13 14 13 13 15 16 16 17 18 19 20 21 22
22 20 23 18 14 19 27 31 32 29 27 31 38 48 58 56 44 41 51 58 52 43 39 35 32 31 31 30 28 28 27 21 20 20 19 24 20 27 67 91 80 68 51 31 34 40 33 29 33 32 26 21 25 36 39 37 36 32 29 29 30 32 33 35 39 39 38 43 46 44 45 37 21 14 14 12 12 12 13 15 17 18 19 21 21 21 21 22
21 17 18 15 13 18 25 27 29 30 33 42 50 53 57 53 40 37 42 45 44 41 37 36 39 39 37 38 35 29 28 25 22 22 21 21 34 58 81 90 84 69 48 32 32 40 37 30 32 32 22 19 27 33 35 41 42 34 29 30 31 35 39 37 40 42 40 43 42 40 44 36 19 12 12 11 11 13 14 16 19 21 23 23 22 22 22 23
23 20 21 17 12 19 27 25 25 30 35 41 43 44 52 54 46 41 43 45 44 39 35 36 40 41 40 42 38 29 29 28 23 27 24 17 44 82 88 86 82 60 44 48 48 43 37 27 27 30 25 22 24 22 26 36 37 24 20 29 37 47 58 55 45 44 46 43 37 39 43 31 16 13 13 12 14 14 15 18 20 24 25 23 23 23 24 26
25 21 21 18 16 23 32 31 27 28 32 36 35 32 38 46 52 53 48 47 48 43 37 38 41 42 42 44 40 33 33 29 20 27 29 21 45 84 91 86 85 68 63 81 82 62 41 27 27 30 29 28 25 22 23 26 27 23 23 35 47 57 65 54 40 43 47 41 36 40 41 28 16 16 15 13 15 16 18 21 23 25 25 23 24 25 26 27
23 20 19 20 22 25 29 31 28 24 27 30 28 28 30 30 42 59 57 47 49 50 43 39 41 40 38 40 36 29 32 34 29 31 33 27 34 65 88 90 85 79 83 97 97 69 41 33 33 30 29 30 29 28 26 24 28 32 35 41 49 63 68 52 42 45 42 38 37 35 35 33 24 19 18 16 17 19 22 24 26 26 25 24 25 27 27 26
24 21 21 22 24 24 23 26 29 28 28 26 25 31 34 26 29 46 53 48 49 54 46 38 40 37 33 35 33 25 29 34 33 34 39 39 34 47 76 87 82 84 90 91 85 64 42 39 42 41 40 35 30 30 28 29 32 32 37 43 44 59 73 63 51 45 38 41 42 31 28 35 29 21 20 20 19 22 25 26 28 27 25 25 26 27 27 25
22 19 23 27 28 24 21 25 34 38 34 31 31 32 31 28 30 35 41 43 45 48 42 33 36 37 36 40 36 27 28 27 30 40 45 44 39 38 54 70 75 82 80 67 63 57 43 40 50 60 55 39 32 33 29 30 32 28 33 39 35 46 68 74 64 50 43 47 43 31 29 33 30 24 22 21 21 25 27 27 27 27 26 26 27 27 26 25
19 16 21 29 31 29 28 33 40 40 33 27 28 32 32 31 33 36 39 38 35 37 34 27 32 37 39 45 39 29 31 30 33 47 50 45 46 40 37 48 59 67 61 48 53 57 43 40 57 69 61 45 38 35 31 31 32 30 32 34 30 32 47 63 62 48 43 46 40 34 36 34 29 25 22 21 23 25 27 26 26 25 26 28 29 28 26 25
23 20 22 27 27 28 31 34 34 31 26 22 22 31 37 34 34 41 43 39 32 31 35 35 38 41 43 48 43 33 39 40 38 46 50 47 48 41 32 34 39 47 48 45 52 51 37 41 57 59 52 46 36 30 30 29 27 29 31 29 28 27 28 40 46 41 44 49 42 38 41 38 28 23 22 22 24 26 28 27 27 25 26 28 29 28 26 26
23 22 24 24 20 22 24 23 23 22 19 21 26 31 36 36 41 44 43 44 43 38 42 46 45 44 45 47 43 39 47 51 47 50 54 50 45 40 36 36 38 43 48 49 52 47 36 37 44 45 45 42 29 25 28 28 29 36 38 32 26 26 27 31 35 39 45 48 46 44 43 37 25 20 23 25 26 29 30 28 27 26 26 27 28 27 27 27
21 22 24 24 20 19 20 18 19 20 21 29 37 39 38 40 47 46 38 43 53 53 52 54 52 46 36 33 42 52 58 60 59 60 61 58 55 51 45 44 47 50 51 51 52 51 47 43 39 40 45 39 28 28 31 30 29 29 31 32 28 26 29 28 30 36 38 38 42 43 36 28 21 22 28 30 30 31 30 28 28 27 26 27 27 27 27 28
Wind_Speed
3 3 3 3 4 5 6 6 5 3 3 2 1 2 4 5 6 8 8 8 9 10 11 11 10 9 8 7 4 1 1 1 6 11 11 9 19 18 12 9 9 7 6 6 5 6 7 6 4 4 5 2 1 1 0 2 2 3 3 4 2 2 2 3 6 3 2 7 11 12 13 11 9 9 6 3 8 10 9 9 10 11 12 14 6 4 7 11
3 3 4 4 5 5 5 4 4 3 2 1 2 3 5 6 8 8 8 9 9 11 12 12 11 9 10 8 8 7 4 5 6 14 9 12 20 14 9 8 7 6 5 6 7 8 7 5 3 5 6 1 1 0 2 1 3 2 3 3 1 3 3 2 2 5 2 5 11 11 12 11 8 8 7 7 11 11 12 12 12 14 13 16 13 8 8 11
4 4 4 5 5 5 4 3 3 2 1 2 3 5 6 7 8 8 8 6 6 8 8 8 6 5 7 8 10 11 7 8 3 12 11 16 18 11 9 7 5 5 4 6 8 7 7 6 5 6 4 1 1 1 1 3 3 1 2 2 3 4 5 4 4 5 4 2 11 11 10 10 6 5 7 8 11 12 14 13 12 16 16 16 16 14 13 12
4 4 5 4 5 4 4 3 2 2 1 3 5 6 7 6 5 5 4 2 7 10 9 5 2 3 8 11 12 11 7 7 3 10 15 18 17 11 9 6 3 3 3 4 6 4 5 5 4 4 3 1 1 0 2 4 3 2 2 2 5 2 4 5 4 5 3 1 8 10 8 10 6 4 6 7 10 11 13 14 14 15 14 14 14 16 17 15
4 4 4 4 4 3 3 3 2 2 3 4 6 6 5 4 4 4 0 4 8 12 13 12 10 7 8 9 9 7 5 4 4 13 19 20 16 10 8 5 2 1 2 3 4 3 5 5 3 3 2 1 1 1 2 4 2 2 3 3 5 2 2 4 4 5 2 2 5 8 8 8 5 5 9 10 11 10 7 7 12 15 13 13 12 14 16 16
4 4 4 3 3 3 2 2 2 2 4 5 5 4 3 3 5 4 2 5 4 7 10 13 13 10 7 5 5 5 4 1 7 17 22 21 14 9 8 5 3 3 2 5 5 4 5 5 4 2 1 1 3 2 3 3 3 0 3 3 4 4 3 4 2 3 1 3 6 6 5 5 5 8 9 14 16 13 8 4 5 9 11 12 9 10 12 14
4 3 3 3 3 2 2 2 3 4 5 4 2 1 3 4 4 3 3 6 2 1 4 8 9 8 7 5 3 2 2 5 13 21 23 21 13 9 7 4 3 2 5 7 6 5 5 6 3 0 0 1 3 3 4 3 1 2 4 3 3 4 4 3 2 1 1 3 3 2 2 5 9 9 8 14 17 17 16 11 8 6 7 9 7 9 12 14
3 3 2 3 2 2 2 3 4 5 3 1 1 0 2 4 5 7 2 4 5 5 3 6 5 2 2 1 2 2 7 8 17 21 21 18 12 8 6 4 4 3 3 4 4 4 4 4 1 1 0 2 2 2 2 2 4 5 4 3 2 3 4 3 2 1 2 2 1 2 5 9 10 8 10 16 17 17 18 16 15 11 9 9 10 13 14 15
3 3 2 2 2 2 4 5 5 3 2 2 2 0 2 3 5 8 7 4 7 7 6 5 5 5 4 5 6 2 7 11 15 18 17 16 11 8 5 3 4 2 1 2 3 3 4 2 0 1 2 4 1 1 3 3 3 4 4 4 4 4 3 3 2 2 3 2 1 6 9 10 8 5 12 19 19 18 18 17 16 15 14 13 12 14 15 16
3 3 2 1 2 3 4 4 3 1 3 3 2 0 1 1 4 7 10 5 5 6 6 5 4 5 5 7 6 2 7 11 12 14 17 18 15 10 6 2 2 2 1 4 4 4 2 2 4 3 6 6 3 3 4 3 3 5 6 5 5 3 3 2 2 4 3 3 3 7 9 11 5 2 11 14 9 10 12 14 14 14 15 15 14 15 16 17
3 2 1 2 2 2 2 1 1 3 4 3 2 1 1 3 6 4 10 11 6 5 3 4 7 6 3 1 1 5 6 10 11 13 15 17 17 15 10 7 5 3 2 5 7 7 5 6 5 2 2 3 4 5 5 3 4 6 6 5 4 2 3 3 3 4 3 3 3 6 11 14 8 7 15 15 7 5 7 10 12 13 13 14 15 15 14 16
2 1 1 0 0 1 1 2 3 4 5 3 2 1 3 5 5 3 7 11 11 12 11 9 8 5 7 10 8 4 5 8 9 12 12 14 16 15 13 10 7 5 3 6 8 8 7 4 2 3 2 2 3 4 4 1 2 4 3 1 3 3 4 7 5 4 4 2 2 4 10 13 13 16 20 17 12 9 10 11 12 13 13 13 14 13 12 14
3 3 3 2 1 1 2 3 5 5 5 4 2 2 5 5 4 5 5 4 2 3 4 4 3 1 1 7 5 2 4 6 9 11 11 11 12 14 14 12 11 10 8 10 8 7 7 4 3 8 5 2 2 3 5 2 1 3 3 3 2 5 5 8 6 4 5 2 3 3 7 8 9 18 20 13 10 10 11 12 12 12 12 12 12 11 12 13
5 4 3 2 1 2 3 4 5 5 5 4 1 2 4 3 5 5 4 3 0 2 5 7 5 2 3 5 2 2 3 5 7 10 11 11 9 12 14 14 15 14 12 13 10 8 9 7 10 10 4 5 5 4 5 3 2 1 1 2 3 4 2 8 7 6 5 2 3 2 6 8 9 10 13 10 9 10 11 12 12 12 11 11 10 11 12 12
5 3 2 1 1 2 3 5 5 5 5 3 1 1 3 4 5 3 4 5 6 7 6 5 3 2 5 5 0 2 4 4 6 9 11 12 8 7 10 11 12 12 11 12 10 8 7 5 7 7 4 4 4 5 3 3 2 1 2 2 3 3 1 6 7 7 5 1 5 5 5 9 12 4 4 5 7 9 12 13 13 12 12 11 10 11 12 12
4 2 2 1 2 3 3 5 5 5 4 1 2 5 6 7 6 5 6 6 6 6 6 5 3 1 4 4 1 1 3 4 5 9 9 11 10 7 5 3 3 5 6 6 5 4 5 6 4 3 3 2 2 2 1 3 3 3 3 5 2 3 4 2 5 5 5 1 6 9 7 9 9 4 3 5 6 9 12 13 14 13 12 12 11 11 11 11
2 2 2 1 3 3 4 5 5 5 3 2 5 5 4 5 5 5 6 6 6 5 4 5 4 2 3 2 1 1 3 5 7 9 8 8 8 8 7 4 1 0 1 2 2 1 3 3 1 0 1 1 1 2 4 2 2 2 3 5 4 4 6 4 2 3 5 4 7 10 11 14 15 13 10 8 9 11 12 14 15 14 13 12 11 11 10 10
1 2 2 3 4 4 4 5 6 5 5 6 7 6 5 5 5 5 4 2 4 2 1 4 4 1 4 2 1 4 5 6 8 9 8 8 7 7 7 4 3 4 4 2 2 2 2 0 2 1 1 1 1 3 4 3 4 4 4 5 5 3 6 7 2 2 4 7 9 10 12 19 20 18 19 16 14 15 15 15 15 15 14 13 11 10 10 10
1 0 4 5 5 5 6 8 8 10 12 12 11 11 11 10 9 10 11 6 0 2 1 4 4 1 4 3 2 5 6 5 6 7 8 8 8 7 5 4 4 3 3 2 2 4 2 0 2 1 1 2 3 3 3 4 4 7 7 5 7 7 7 9 3 3 2 6 10 13 14 19 20 19 18 18 16 16 16 15 14 13 12 11 10 10 11 11
1 2 6 5 4 5 8 10 12 15 12 8 5 4 5 6 6 7 11 10 5 3 2 4 5 4 5 4 5 7 6 4 2 5 9 10 8 7 4 3 3 1 3 2 2 3 2 1 1 2 3 4 4 4 3 4 4 6 7 6 8 8 8 10 3 4 1 5 9 12 15 19 20 20 19 18 17 17 16 16 14 13 12 11 11 12 12 12
1 4 6 6 4 6 10 12 15 15 6 6 2 3 1 1 2 4 3 6 5 3 3 4 4 5 4 4 8 9 5 4 1 8 13 11 6 5 3 2 3 1 4 3 2 1 2 1 3 4 4 3 3 3 3 4 5 6 6 7 8 7 8 8 2 3 1 3 8 11 16 20 19 19 20 18 17 18 17 16 16 16 14 12 12 13 13 11
2 4 7 6 5 8 11 13 17 12 5 9 3 1 3 3 6 6 2 5 5 3 2 2 2 5 3 1 6 9 4 1 4 11 17 14 4 2 4 3 3 2 2 2 3 2 1 2 4 3 3 2 1 1 2 4 5 6 5 6 6 4 6 5 2 2 1 3 8 10 13 19 20 19 21 20 18 16 15 15 14 15 14 13 12 12 12 11
4 6 8 7 8 9 11 14 17 8 6 7 4 6 8 8 9 4 2 3 5 2 3 3 4 6 4 2 7 10 3 2 5 9 18 15 5 4 5 4 4 2 1 3 3 3 1 3 4 2 1 2 2 1 2 5 5 6 5 6 6 5 6 4 1 1 4 6 9 11 9 16 19 16 16 15 12 11 10 10 10 10 12 12 10 8 9 10
6 9 10 10 10 10 11 13 14 7 4 4 6 9 10 7 5 3 3 1 3 2 2 3 2 5 5 3 7 8 4 4 4 8 15 13 5 3 3 3 3 1 2 5 5 2 3 3 2 1 0 3 3 3 3 4 5 6 6 5 7 8 8 8 6 9 10 7 5 9 8 10 9 7 7 4 2 4 4 5 7 8 10 10 9 8 7 8
8 10 12 13 11 10 11 11 10 9 3 2 6 9 8 5 4 4 2 2 2 2 2 1 1 3 4 3 6 5 1 2 3 7 11 10 6 3 1 1 3 1 3 5 5 1 3 2 0 1 0 2 3 5 3 2 6 5 1 3 6 8 9 10 11 11 9 3 3 4 8 6 3 5 7 2 1 4 3 4 8 7 7 8 8 8 8 7
9 11 14 15 13 12 12 8 8 10 6 2 6 9 6 3 4 5 2 3 2 3 2 0 1 3 5 4 6 3 2 1 3 4 6 7 5 2 1 0 0 2 2 3 3 1 2 2 1 1 2 3 4 6 2 0 6 5 2 4 6 7 9 10 9 6 6 6 2 2 5 7 8 8 4 3 5 7 2 2 5 5 3 3 4 6 7 7
9 11 14 15 16 15 8 3 7 8 4 3 8 12 8 2 4 4 3 3 2 2 3 3 1 4 6 4 6 3 1 3 2 2 5 6 4 2 1 2 1 2 2 2 2 1 2 2 2 1 3 5 5 4 0 1 5 4 2 4 6 7 9 9 7 5 5 9 5 5 5 6 8 5 2 2 5 7 7 7 7 7 6 5 4 5 6 7
10 12 15 15 17 16 6 1 5 6 3 3 8 14 11 1 4 4 3 0 3 1 1 3 1 3 4 4 5 3 1 5 3 3 3 4 4 2 1 3 2 1 2 3 3 1 0 1 2 2 4 4 3 2 3 1 4 3 3 5 7 7 9 7 6 7 5 7 6 5 5 5 7 4 2 2 3 8 9 10 9 8 8 7 6 7 7 8
9 11 14 14 16 16 7 2 3 3 4 4 9 13 8 0 3 4 2 1 2 1 0 2 1 3 5 4 2 4 2 3 4 4 4 2 2 1 1 3 1 1 1 3 3 2 1 2 2 2 3 3 4 3 2 2 4 3 4 6 7 7 8 6 6 6 5 6 5 2 3 4 7 7 4 0 3 7 8 9 9 8 8 7 7 8 8 9
9 10 12 13 13 11 5 2 1 2 2 6 11 10 4 1 3 3 0 1 2 1 0 2 2 5 8 4 1 6 5 3 4 5 3 0 0 2 2 1 1 1 1 3 3 1 3 2 1 1 3 3 5 3 1 3 5 5 6 8 8 7 6 5 5 4 4 5 1 3 1 3 5 8 7 2 1 3 5 8 9 9 8 7 8 10 10 11
9 11 13 13 11 8 4 0 1 3 6 10 12 7 2 3 3 2 2 2 2 2 1 3 3 4 7 4 2 7 5 3 6 7 4 2 3 6 4 1 2 2 1 0 1 2 4 1 1 1 1 2 4 4 3 3 3 4 5 7 8 5 3 3 4 4 4 3 2 3 1 3 5 6 6 3 2 1 2 6 9 10 9 6 7 10 11 11
10 12 13 12 9 7 2 2 5 8 10 11 8 3 3 2 1 2 2 1 2 4 3 2 4 5 5 3 3 8 5 2 6 5 4 3 4 7 6 4 4 3 4 5 4 2 2 2 2 2 1 2 3 5 2 4 4 4 5 5 7 6 3 4 4 3 5 1 3 2 2 4 8 9 10 10 7 4 3 4 7 9 9 8 8 10 10 10
10 10 12 9 6 5 4 6 9 10 11 8 4 2 3 1 3 2 2 3 2 3 2 2 4 6 6 3 4 6 2 1 5 2 0 2 2 3 3 4 4 3 4 6 6 6 2 2 2 3 2 1 3 5 3 1 2 4 5 5 5 6 6 7 6 6 7 2 4 2 2 6 8 7 8 9 8 7 5 4 5 6 7 8 9 9 9 9
10 7 9 9 7 8 8 9 10 9 7 3 3 3 2 2 3 2 2 4 2 2 2 2 5 5 2 2 3 4 1 1 3 3 1 1 1 3 2 5 6 3 4 5 3 4 4 1 1 1 1 1 2 3 4 5 7 5 3 3 4 4 5 7 7 7 8 8 4 1 0 5 5 5 9 10 7 6 4 3 3 3 4 5 6 7 9 11
14 12 13 15 12 11 9 7 7 6 2 2 3 1 2 3 3 2 3 3 2 4 2 1 4 3 2 2 2 1 2 1 2 3 3 3 3 4 3 4 8 5 4 4 3 2 5 3 1 2 2 1 1 1 2 4 6 2 1 3 3 3 4 7 9 8 7 8 6 2 3 5 6 9 11 6 7 7 5 4 4 8 9 7 7 8 11 12
18 17 16 16 13 10 7 5 3 2 1 4 1 4 3 2 2 2 2 1 3 5 5 2 3 3 3 2 1 2 0 1 3 2 2 3 2 3 3 3 5 6 4 4 3 3 5 5 1 2 1 0 1 1 1 3 4 2 3 4 3 2 3 6 9 5 3 6 7 5 6 6 7 7 4 6 9 10 9 9 11 14 15 12 10 11 12 13
16 16 15 16 13 8 6 4 3 1 2 2 3 4 2 1 0 1 2 3 2 3 5 1 3 4 4 3 3 5 3 1 3 4 1 2 1 2 3 2 2 4 4 2 2 2 4 8 6 3 1 1 1 2 3 2 3 3 3 5 5 2 2 3 5 4 5 8 7 7 10 10 8 5 4 7 13 14 11 13 16 15 14 14 13 13 15 16
7 9 11 17 14 7 5 5 3 1 0 4 6 4 0 0 1 1 3 4 3 3 3 3 3 2 3 4 4 5 6 4 5 5 3 2 1 2 3 2 2 1 3 2 2 2 2 7 4 1 2 1 3 3 3 3 2 3 3 4 4 2 2 4 5 5 7 8 7 9 11 10 8 5 6 12 18 16 13 15 16 15 14 14 14 15 17 19
2 3 5 14 12 6 5 3 1 1 2 5 5 3 2 2 2 2 3 3 3 3 3 4 2 1 2 4 4 3 3 4 5 5 3 3 3 2 2 2 1 0 1 3 3 2 2 4 2 1 2 2 2 2 3 0 1 2 3 2 1 1 4 5 5 5 6 8 8 8 9 8 7 5 8 17 20 16 15 16 16 16 15 14 14 15 17 18
1 2 3 13 10 7 9 6 2 3 4 4 3 2 2 2 2 2 2 2 2 2 3 3 2 3 2 2 1 2 2 2 3 4 3 2 2 3 4 3 3 2 1 3 3 3 2 3 5 3 2 3 2 0 4 4 1 1 2 2 1 2 2 3 5 3 4 7 8 7 7 9 9 7 12 19 18 14 15 16 16 16 17 17 16 16 17 17
2 3 4 15 9 1 5 7 6 5 4 4 4 3 2 1 1 2 2 0 1 0 2 2 2 3 2 2 1 1 3 3 2 2 2 2 2 2 4 3 5 4 2 3 2 2 2 3 7 7 5 7 4 2 3 3 2 3 4 4 5 5 3 6 6 1 1 5 5 7 9 10 11 10 12 15 13 14 16 15 15 16 19 19 18 18 18 16
2 3 5 13 6 1 4 6 4 4 3 3 3 3 2 1 1 1 1 1 1 1 1 0 2 2 2 3 2 2 3 3 2 2 2 2 2 2 3 3 5 4 3 3 1 1 2 3 6 7 8 8 2 5 4 3 1 3 4 2 3 4 4 6 7 4 4 4 2 4 8 9 11 10 11 13 12 14 15 15 15 17 18 20 19 19 19 17
3 3 7 13 6 3 3 6 4 4 5 2 1 2 2 2 1 1 1 1 1 1 1 0 1 2 2 2 2 3 3 1 1 3 3 2 1 2 3 4 4 3 3 2 1 1 1 3 4 7 8 5 3 6 5 2 1 2 3 3 3 3 2 4 6 4 5 7 6 6 8 9 10 10 11 14 15 15 13 14 16 17 16 19 19 19 18 17
3 4 6 15 10 2 1 5 4 4 4 2 2 3 1 2 3 3 2 4 3 2 2 2 1 2 2 2 2 3 4 2 1 1 2 2 1 1 2 3 3 3 2 2 3 3 1 2 4 6 7 5 1 2 2 0 2 4 5 3 3 1 1 0 4 2 4 10 10 8 8 9 9 11 14 16 17 16 14 14 17 16 16 17 17 17 17 16
2 3 2 13 18 10 3 2 3 5 4 3 4 3 1 2 3 2 2 3 3 2 2 2 1 2 2 1 1 2 2 2 1 1 0 2 0 2 1 3 3 3 4 4 4 3 3 4 4 4 6 8 7 6 6 6 6 7 7 5 3 4 4 2 4 4 5 8 9 8 9 11 13 16 17 18 18 16 16 17 17 16 17 17 16 15 15 15
1 3 1 5 11 9 4 3 3 4 3 2 3 3 3 2 1 1 1 1 1 1 2 1 1 1 1 2 3 2 1 1 1 2 2 3 1 2 0 2 3 2 4 5 4 3 3 4 5 5 6 7 8 9 10 11 10 10 13 12 5 4 5 3 4 5 6 7 9 10 11 13 18 18 18 19 18 16 16 19 19 18 18 18 15 14 14 14
1 3 2 1 3 4 5 5 5 3 1 1 1 2 4 4 1 1 1 0 1 1 2 0 1 2 3 4 4 3 3 2 1 1 2 3 2 1 2 1 1 1 2 2 2 2 3 5 3 4 7 10 12 14 15 12 12 14 15 15 10 3 7 5 6 9 8 7 9 12 14 16 18 19 20 19 17 15 17 19 18 18 18 18 15 15 16 16
3 3 1 1 1 2 4 4 4 5 5 3 2 1 3 3 3 2 0 1 1 0 1 0 3 5 5 5 4 4 7 6 1 0 2 2 3 2 2 2 1 1 1 1 2 1 4 5 0 2 6 12 14 16 16 13 13 15 13 14 16 9 6 8 10 12 9 7 11 15 18 19 18 19 21 18 14 14 17 18 17 17 19 18 16 16 17 17
3 4 1 2 2 2 2 2 3 3 6 5 3 2 4 4 4 2 1 1 0 1 1 2 5 7 5 3 3 4 7 6 3 1 1 1 3 3 2 1 2 2 2 1 1 0 3 3 1 0 7 11 14 15 13 11 13 14 13 14 16 14 9 8 10 12 12 14 17 18 21 21 18 19 18 14 12 13 15 15 16 18 19 17 16 17 17 16
2 4 2 2 4 3 1 2 3 2 5 4 2 2 3 3 3 2 0 2 2 3 3 5 7 9 4 1 3 3 5 6 5 4 2 2 3 2 2 2 1 1 2 1 0 1 2 2 3 1 8 10 10 9 6 9 13 14 15 14 12 13 12 8 8 9 10 13 16 17 18 17 14 14 13 12 12 14 15 15 16 18 18 16 16 16 16 17
6 4 3 4 5 2 2 0 1 2 4 4 3 2 2 3 3 2 0 1 2 3 4 5 7 7 2 1 3 2 4 5 7 6 3 4 5 3 2 3 4 3 2 1 0 1 2 3 1 2 8 9 8 9 11 14 14 12 13 13 12 12 10 7 5 6 8 9 12 13 12 11 10 11 13 14 15 16 17 16 16 16 17 16 15 15 16 17
7 4 1 3 4 2 2 1 1 2 3 3 2 1 2 2 2 2 0 1 0 1 2 3 5 5 2 2 2 2 3 5 7 6 4 5 6 6 5 5 4 4 3 2 1 1 1 4 4 4 6 9 11 15 16 16 11 6 5 6 9 11 11 9 6 7 10 9 9 9 10 11 13 13 14 17 18 18 17 15 14 16 17 15 13 14 16 17
Wind_Direction
219 201 183 170 155 152 154 159 164 172 186 195 258 302 318 317 318 309 307 308 304 299 291 290 275 260 257 236 229 213 34 30 77 62 63 18 341 334 327 319 326 325 309 293 264 272 274 250 243 265 257 226 354 31 125 26 355 273 249 242 226 181 167 152 170 133 81 147 152 163 172 192 190 186 196 218 241 242 242 231 235 235 233 240 229 120 146 152
195 179 165 156 147 151 155 161 170 175 190 227 297 313 321 318 315 309 311 313 307 302 298 295 286 265 252 232 217 212 260 281 70 59 39 347 342 338 328 322 324 323 307 293 265 263 273 274 278 274 268 237 20 323 199 352 332 280 272 259 14 61 74 46 106 86 19 161 154 165 177 196 200 185 180 210 227 223 238 238 232 238 235 235 227 200 185 177
171 161 150 147 146 151 156 163 174 174 213 283 311 315 320 320 316 314 317 319 326 331 324 313 298 253 219 198 200 207 262 280 56 42 356 338 344 341 331 321 321 329 318 302 286 277 292 305 300 282 277 308 22 281 233 351 325 308 300 285 68 69 86 59 52 70 6 127 153 165 178 200 204 185 179 211 235 224 231 235 228 233 233 232 227 212 203 202
156 153 148 149 151 155 164 167 171 194 269 300 311 318 321 324 328 332 333 40 50 39 29 21 44 155 172 176 193 204 269 286 47 6 336 337 340 341 338 326 315 336 353 310 288 275 280 290 288 289 290 281 69 71 6 15 333 10 349 3 75 83 101 78 45 64 6 308 165 160 171 205 202 202 208 217 238 235 234 234 231 236 237 234 230 217 205 208
157 155 156 157 160 164 167 172 194 250 292 308 314 323 324 333 350 348 46 122 74 56 49 52 68 98 151 174 190 199 274 280 29 346 333 336 336 337 338 333 291 176 33 317 276 268 259 262 256 275 288 295 42 189 29 25 337 42 46 39 65 22 79 94 44 53 356 288 172 164 179 203 192 217 229 227 235 237 239 242 239 240 244 243 242 231 209 207
163 160 164 161 165 169 171 203 245 280 306 318 320 325 332 350 345 330 204 162 97 64 50 50 61 78 114 131 173 216 272 46 7 340 333 335 333 332 332 328 276 220 305 291 264 260 250 256 252 264 280 17 16 37 44 17 283 101 93 74 53 16 63 99 55 40 310 221 180 177 191 193 208 234 231 230 238 244 259 316 280 254 252 253 255 246 220 212
164 163 163 160 169 180 206 245 272 304 317 320 310 310 350 360 351 351 209 204 212 53 39 34 48 66 90 102 152 216 45 40 352 338 335 339 338 332 330 320 309 285 294 280 265 262 257 267 253 249 117 105 44 53 43 30 11 77 109 98 52 42 72 85 62 66 257 220 186 162 208 219 228 243 242 237 241 247 258 270 274 267 258 256 250 244 234 228
160 157 157 168 180 199 245 278 297 313 313 264 216 319 22 40 44 42 36 242 260 266 302 350 353 347 7 339 248 79 53 1 339 338 342 348 347 342 338 325 333 328 294 286 288 287 269 271 215 202 106 73 58 66 6 24 59 66 105 120 92 78 88 90 85 143 207 222 308 263 238 242 241 259 267 253 250 248 252 256 254 248 240 241 239 240 239 238
150 153 159 171 200 250 282 296 305 308 233 209 194 116 50 68 44 30 13 308 266 266 277 312 322 300 307 293 269 53 29 340 335 343 356 9 8 1 354 335 338 310 289 7 335 307 284 281 133 237 91 81 83 72 334 326 48 73 105 123 120 110 102 118 149 150 195 208 254 250 246 254 249 277 274 257 253 250 248 248 248 246 239 237 238 240 241 242
146 152 165 200 265 283 299 305 312 228 191 195 189 318 33 37 3 16 19 358 250 253 266 279 348 333 288 265 259 70 8 341 347 352 9 26 30 30 25 24 4 325 343 37 19 342 316 104 97 97 103 93 63 37 348 352 84 101 110 109 107 119 127 152 193 152 204 231 227 256 264 267 236 185 265 257 246 243 242 243 242 245 243 241 243 240 240 241
148 167 215 267 280 296 317 339 102 170 182 188 198 325 331 329 344 25 46 52 100 124 118 119 74 45 51 33 63 74 7 348 359 357 7 22 32 37 34 33 20 354 2 68 52 27 54 88 86 86 126 115 82 67 46 63 107 118 118 107 107 147 155 174 201 164 217 225 202 270 281 272 244 211 249 251 237 215 228 242 238 241 243 242 247 244 240 240
175 196 195 193 335 344 16 107 150 173 179 189 203 278 312 338 3 86 84 71 90 98 96 104 95 72 65 63 63 60 345 347 359 1 7 18 32 38 39 42 42 34 55 97 66 33 55 51 7 53 59 170 145 94 89 107 126 135 172 163 144 203 207 193 191 168 221 202 123 307 290 264 231 222 242 245 240 232 230 245 244 242 244 243 246 246 244 243
167 147 120 105 59 62 116 132 163 175 188 203 220 289 332 5 77 109 103 87 80 93 83 82 98 253 52 65 58 357 323 351 1 6 15 24 42 47 47 53 60 63 73 90 71 45 64 38 75 85 58 91 121 106 123 160 196 163 254 294 192 232 220 187 180 173 213 176 95 318 292 272 225 218 234 239 228 223 227 241 244 243 245 244 247 249 249 249
142 127 98 75 67 124 132 145 164 179 193 194 238 320 1 52 123 109 87 89 58 144 105 90 104 115 86 81 54 344 1 17 13 10 15 19 39 54 52 55 63 67 71 82 79 72 77 78 97 95 41 54 97 142 136 149 213 204 272 271 238 268 174 161 171 181 199 153 124 234 269 280 282 235 222 220 203 208 231 241 245 247 249 249 250 252 254 252
135 106 51 43 118 132 141 150 164 180 186 197 295 12 71 99 126 110 103 109 106 109 88 73 106 119 97 93 102 337 11 24 12 358 4 9 10 37 47 51 61 67 71 79 85 77 73 81 90 88 70 76 128 164 151 162 199 217 265 261 235 267 204 163 176 196 219 165 158 206 262 273 289 302 147 183 208 219 242 249 251 253 255 259 258 257 260 258
124 54 14 41 138 141 155 159 170 178 180 196 121 113 108 105 105 101 109 123 120 96 54 33 31 28 93 92 138 303 1 358 351 341 349 3 3 2 356 358 57 71 77 81 92 81 64 71 64 71 120 166 198 194 223 210 206 191 234 293 293 268 289 200 170 198 237 257 185 212 260 281 282 301 123 166 209 227 245 253 253 255 258 262 264 263 263 264
117 22 24 140 144 146 160 163 166 172 172 168 147 142 140 116 106 110 109 123 122 90 43 31 4 342 83 99 240 341 350 334 340 340 339 347 355 350 324 288 259 344 136 112 103 91 50 74 117 214 141 203 288 282 270 259 273 202 217 277 275 260 285 279 185 178 203 219 229 226 244 265 268 274 270 237 214 224 244 254 254 257 261 263 265 265 263 264
281 9 123 138 139 141 152 152 149 148 135 131 141 142 134 109 102 95 68 129 161 188 359 23 346 267 95 95 298 355 340 315 328 345 341 327 326 334 332 307 272 275 234 189 54 14 352 112 203 187 127 157 14 306 298 334 329 327 319 298 300 284 267 274 273 140 189 216 242 247 251 262 266 269 272 265 247 241 245 252 257 259 261 261 261 262 262 264
291 167 153 140 128 130 141 146 137 131 125 117 118 115 108 101 96 73 41 29 290 257 297 5 343 106 84 63 360 348 343 316 317 345 345 333 318 298 298 297 281 295 266 233 34 17 334 255 206 216 76 34 10 357 337 343 329 317 316 308 306 301 279 281 289 117 223 254 250 252 256 265 271 270 269 270 265 257 251 248 253 255 255 256 256 259 259 259
258 173 167 155 136 137 146 145 140 137 125 103 113 130 127 121 106 68 37 37 43 16 17 1 5 65 68 34 354 336 323 290 307 17 1 347 322 290 291 294 254 45 22 315 18 31 307 281 51 15 17 10 357 360 341 325 316 304 300 292 288 285 283 288 298 111 134 277 264 262 268 269 271 272 269 269 268 265 256 244 244 247 245 248 249 253 255 256
225 169 173 167 154 156 154 150 151 148 105 19 318 252 229 117 95 106 63 59 60 360 10 12 20 65 56 9 360 344 296 240 56 33 12 352 308 283 331 323 268 77 46 338 310 346 274 299 46 31 13 1 345 340 320 309 304 294 285 284 284 280 286 298 360 102 152 268 272 278 285 279 274 273 272 269 265 263 257 245 242 245 242 243 246 249 252 254
198 172 170 160 152 160 158 157 161 157 32 11 16 58 55 58 95 119 137 94 76 340 339 4 13 62 64 39 8 343 294 230 33 29 9 352 333 337 344 343 1 43 36 304 271 257 232 85 59 39 25 2 330 346 306 297 288 280 275 274 286 311 313 310 84 101 197 226 279 299 299 287 281 276 271 267 262 261 260 254 251 254 252 243 239 244 248 251
199 180 170 153 145 155 162 167 171 174 5 17 72 97 101 100 99 86 334 106 95 351 10 33 25 32 30 60 4 337 342 27 357 16 1 348 10 14 338 4 34 28 347 339 325 309 325 79 62 36 12 307 285 341 297 286 268 251 259 275 289 333 336 301 139 353 271 237 279 304 298 283 282 275 266 260 261 268 273 273 271 270 267 256 250 253 247 247
200 187 175 161 147 150 166 174 181 202 346 40 109 118 118 105 77 16 321 130 95 66 60 44 31 24 20 25 349 338 44 53 344 357 354 352 8 329 334 21 353 340 37 354 331 341 62 73 61 123 318 324 313 302 278 284 285 244 235 271 295 317 321 296 304 315 291 246 256 294 285 271 275 283 278 244 208 270 264 272 274 260 256 258 266 268 247 242
202 193 184 174 160 154 165 174 194 218 239 104 132 137 124 85 33 357 299 220 75 83 119 150 174 37 15 337 351 352 65 64 26 354 351 0 354 312 45 43 313 12 42 338 317 329 85 88 232 199 300 333 309 293 282 285 300 279 220 342 325 322 314 299 310 318 304 261 185 293 305 291 292 311 311 355 11 286 229 229 269 266 242 235 244 254 248 247
205 197 190 184 177 167 165 178 206 215 226 215 184 178 151 88 34 13 295 227 71 34 353 62 159 16 9 354 5 355 235 70 43 356 355 6 349 297 345 347 277 41 18 330 322 301 91 113 198 319 317 303 288 280 259 182 300 301 31 358 330 319 305 297 309 308 298 304 235 196 290 290 303 313 331 16 321 311 327 271 300 319 290 242 247 265 271 274
210 198 193 191 189 178 167 187 195 197 223 234 207 196 181 130 21 8 279 222 78 9 336 15 7 353 3 346 334 320 288 342 330 18 13 3 356 245 286 11 38 54 40 309 315 131 109 136 190 257 284 279 281 279 190 99 296 300 36 344 319 307 293 288 297 271 270 306 286 200 220 266 295 314 79 61 324 351 11 359 357 2 3 359 343 331 320 309
211 195 189 192 193 186 186 238 171 184 241 235 202 194 188 194 356 324 271 184 37 327 326 10 327 345 354 327 338 15 25 322 326 49 16 341 346 260 242 31 15 43 62 292 323 45 232 265 214 246 263 272 302 6 37 341 273 316 20 331 305 291 283 274 274 268 270 303 291 192 193 256 286 307 104 141 359 20 6 347 347 350 1 8 3 359 349 338
193 190 187 187 189 190 205 262 175 208 258 220 184 180 180 230 330 287 252 99 12 324 183 355 332 351 338 302 3 42 34 349 5 354 328 314 4 343 39 37 59 75 49 260 304 351 51 18 4 289 276 303 356 21 26 265 261 331 338 293 272 254 259 257 252 272 274 273 282 156 170 275 297 308 319 144 23 13 353 337 334 336 352 8 14 12 0 354
164 173 177 177 178 186 205 281 260 242 217 171 165 163 169 264 272 260 203 51 354 2 70 358 342 322 332 325 65 25 18 35 2 320 319 165 117 48 58 313 241 213 214 220 268 278 96 55 331 306 309 330 342 321 211 251 281 321 306 280 273 244 225 236 240 262 269 251 310 59 75 311 304 300 319 21 88 360 339 323 320 329 351 14 27 26 14 360
146 154 164 167 166 176 196 234 177 179 152 150 154 155 201 238 255 285 65 50 328 354 14 12 2 341 355 15 32 2 5 27 360 352 15 36 15 22 30 337 292 273 253 267 254 180 135 143 189 127 321 302 303 276 197 196 259 283 280 284 298 280 212 230 220 207 255 272 57 58 348 294 268 274 309 327 248 252 312 304 313 327 336 356 21 29 21 360
131 144 155 158 163 169 163 142 157 155 146 147 153 171 245 233 353 22 51 348 298 1 19 6 359 352 349 358 6 353 350 9 4 15 16 7 41 33 24 20 349 335 5 358 331 293 174 164 146 139 177 208 283 294 212 171 194 239 275 297 311 317 315 291 275 256 281 301 129 115 360 279 256 268 285 291 301 339 350 303 314 326 323 327 346 4 5 348
115 140 146 140 159 153 113 135 148 149 148 149 165 221 254 277 50 56 12 353 348 8 352 285 318 320 309 320 3 350 311 340 348 4 286 292 77 65 61 47 360 319 339 335 331 338 351 132 165 177 152 165 270 304 311 257 271 292 313 324 318 325 322 304 304 299 297 293 158 143 10 280 265 278 282 291 326 5 15 355 341 334 324 322 325 327 322 318
101 129 127 106 109 113 108 126 136 143 150 166 236 244 276 37 66 86 17 17 19 339 313 302 305 296 310 26 4 336 288 129 342 329 305 284 52 43 66 57 23 331 294 311 344 346 327 324 228 201 72 75 267 319 344 316 299 307 333 320 305 309 301 296 308 308 304 310 300 161 334 279 286 333 322 324 3 37 42 44 31 355 331 307 301 302 305 317
96 96 94 83 77 85 93 111 129 138 148 268 257 269 31 59 53 22 25 13 327 324 315 275 291 285 77 100 165 359 340 60 11 342 6 21 36 20 8 31 18 356 318 328 7 336 303 306 94 86 60 313 297 36 31 302 289 308 340 297 307 326 311 290 291 299 307 306 296 229 222 270 296 320 323 352 56 62 48 53 31 4 356 336 321 327 327 330
86 77 69 58 53 60 70 85 104 108 298 281 298 47 46 58 9 354 21 308 280 313 300 276 321 345 33 21 148 92 22 290 335 327 57 55 29 26 21 28 11 3 5 347 345 347 313 299 221 125 125 139 353 78 177 301 319 339 315 320 331 310 303 293 285 293 295 277 276 271 279 297 314 323 356 61 40 15 10 15 4 352 349 342 337 337 333 332
75 71 54 35 35 46 50 64 79 73 296 314 56 66 50 175 275 321 356 335 312 304 293 317 23 356 2 352 13 17 342 310 338 326 55 63 30 44 29 64 40 2 24 3 329 38 324 294 285 281 290 134 130 264 240 243 315 311 314 335 326 268 217 275 278 293 296 284 289 304 308 314 320 333 35 24 355 350 359 360 350 345 344 341 339 337 333 331
73 85 54 23 22 40 54 74 82 238 145 63 81 104 62 69 92 345 346 338 312 283 309 18 39 344 345 351 9 359 336 350 353 343 20 15 9 30 357 41 82 2 17 321 291 59 319 292 304 5 319 245 170 249 262 180 233 293 295 312 316 299 281 283 284 300 302 294 293 305 314 312 308 336 2 342 337 342 349 346 342 343 343 340 338 335 333 329
84 132 56 11 13 48 64 102 152 269 103 74 80 109 58 58 76 23 354 327 288 284 348 21 23 42 18 350 358 6 357 6 346 341 19 4 360 33 6 3 41 101 13 308 302 9 304 286 322 97 246 260 189 233 313 13 188 245 257 252 172 237 278 292 299 296 291 288 291 308 319 304 303 343 339 325 329 339 342 340 338 339 339 339 339 335 332 329
324 156 56 356 2 69 65 71 78 30 65 67 56 76 53 63 86 66 29 341 304 322 13 14 357 5 14 351 12 22 3 355 330 338 10 358 353 41 45 14 349 6 325 276 282 313 279 254 290 291 250 295 301 334 350 349 339 281 289 295 297 269 266 285 281 266 283 291 296 309 308 292 296 321 320 318 328 335 337 339 337 338 342 340 336 332 329 326
287 144 31 346 334 133 36 46 50 32 67 75 60 73 50 17 42 66 108 317 299 17 18 7 10 4 348 340 45 22 336 316 313 330 356 19 11 26 50 24 345 345 310 270 250 307 316 270 288 306 308 310 326 75 44 17 7 320 309 314 315 306 302 295 291 337 350 292 294 300 293 285 284 296 311 315 322 329 337 344 340 340 341 335 329 327 327 327
12 106 4 352 4 308 357 54 54 15 71 73 44 64 33 350 346 2 122 213 263 225 204 21 13 7 3 354 352 350 334 313 324 342 339 6 13 10 30 4 329 317 298 301 71 47 341 285 281 291 287 293 6 94 79 54 34 264 261 274 307 297 286 288 301 337 319 282 269 272 267 271 281 294 315 320 321 328 340 350 343 338 334 328 325 326 327 331
49 81 3 357 3 284 1 79 73 26 69 81 19 63 16 359 5 341 7 20 334 292 303 85 5 1 32 7 325 335 353 312 282 342 332 317 19 31 353 332 316 296 280 287 87 66 334 269 284 293 285 282 113 111 99 92 185 248 256 242 246 279 295 282 290 318 303 278 272 270 264 271 291 309 321 323 326 331 343 349 340 333 328 325 326 327 330 337
76 107 21 10 15 299 8 79 98 83 88 134 117 83 39 21 28 12 10 20 16 328 342 28 23 360 7 348 309 323 355 354 268 14 346 310 17 80 343 335 322 319 344 355 1 7 316 285 312 315 313 322 5 87 67 6 284 313 306 248 197 203 79 276 275 263 255 263 264 269 273 275 292 310 315 318 326 334 341 342 335 330 328 327 327 330 336 340
92 108 48 22 35 55 72 43 99 114 116 134 100 52 5 91 51 1 351 13 16 331 334 20 29 341 316 299 269 275 327 340 321 36 358 297 318 130 10 336 309 322 15 2 341 326 292 294 312 314 325 333 329 330 336 327 320 315 301 274 206 178 174 225 282 270 259 273 271 264 268 279 295 307 311 317 327 334 337 335 332 331 330 329 331 334 337 336
84 60 49 17 35 53 70 24 43 99 121 123 89 23 2 51 94 213 251 354 25 329 319 351 350 283 272 309 310 285 237 211 284 342 311 296 334 105 132 309 291 316 3 343 316 297 287 274 254 252 275 296 300 302 308 315 313 298 292 290 274 168 169 226 276 269 280 299 286 271 275 286 297 306 312 319 327 334 334 332 330 331 331 330 332 334 331 328
66 60 21 4 54 57 66 43 22 48 76 343 47 24 4 20 43 184 194 132 68 341 287 323 12 347 351 343 332 323 321 297 222 344 310 292 324 56 183 232 264 269 325 315 261 254 287 282 256 230 246 264 278 288 293 298 291 280 284 292 290 203 157 185 231 253 285 305 282 279 291 295 297 305 310 315 326 333 330 327 325 327 328 328 329 328 325 325
52 99 327 325 53 40 47 35 11 40 53 48 93 55 5 33 40 11 344 176 139 222 263 82 39 22 9 340 323 334 338 330 281 275 327 306 318 317 197 187 174 184 233 221 183 274 293 285 328 148 244 260 272 279 280 278 273 269 269 280 286 273 194 187 227 246 259 261 260 277 291 292 293 299 303 311 326 329 324 322 320 319 320 323 324 322 321 325
66 105 63 341 61 79 44 336 304 42 52 47 84 55 11 36 48 33 359 278 211 91 2 358 12 10 8 336 312 333 348 344 319 309 359 332 308 300 275 262 164 174 231 243 181 173 275 282 55 39 270 267 266 266 264 259 262 268 269 271 278 276 250 220 234 247 246 245 253 268 279 282 284 288 295 310 324 321 317 317 318 319 319 318 316 316 319 325
125 120 115 101 95 86 34 287 278 71 58 26 47 58 357 6 32 47 53 333 3 42 11 354 352 344 340 314 300 326 7 354 311 297 333 320 308 304 294 331 25 208 249 277 66 185 251 330 52 338 292 289 278 270 258 252 260 273 282 280 278 283 278 253 236 243 246 250 256 264 272 275 279 287 301 317 320 315 315 317 320 320 318 314 311 314 320 324
85 90 120 120 93 22 329 317 316 56 61 27 31 58 339 9 25 358 26 45 6 6 358 346 337 329 307 204 278 320 20 343 294 291 299 284 298 325 326 336 358 334 299 322 358 236 257 297 327 323 306 300 313 329 316 294 281 272 271 277 284 290 289 278 250 218 218 251 274 278 277 281 298 315 319 315 313 315 317 319 319 316 313 310 310 315 322 324
87 76 71 100 88 20 337 40 17 53 69 26 20 30 340 24 31 310 338 127 182 17 15 326 320 319 294 292 329 360 346 306 287 295 300 276 282 293 287 291 309 305 298 314 304 262 308 300 307 338 312 290 312 328 316 302 297 284 264 280 293 290 283 282 274 214 212 245 277 281 281 295 312 321 314 309 316 321 319 319 316 308 305 305 309 319 324 326